START_TIME,STEP,MOV.,H8,t_acc.,H43,t_acc.,M25,t_acc.,H9,t_acc.
1979-07-22 06:00:29.150 ,5,0,0.,12.0,0.,12.0,0.,12.0,0.,12.0
1979-07-22 06:00:41.150 ,5,0,0.,12.0,0.,12.0,0.,12.0,0.,12.0
1979-07-22 06:00:53.150 ,4,0,0.,12.0,0.,12.0,0.,12.0,0.,12.0
1979-07-22 06:01:05.150 ,4,0,0.,12.0,0.,12.0,0.,12.0,0.,12.0
1979-07-22 06:01:17.150 ,4,0,0.,12.0,0.,12.0,0.,12.0,0.,12.0
1979-07-22 06:01:29.150 ,4,0,0.,12.0,0.,12.0,0.,12.0,0.,12.0
1979-07-22 06:01:41.150 ,3,0,0.,12.0,0.,12.0,0.,12.0,0.,12.0
1979-07-22 06:01:53.150 ,3,0,0.,12.0,0.,12.0,0.,12.0,0.,12.0
1979-07-22 06:02:05.150 ,3,0,0.,12.0,0.,12.0,0.,12.0,0.,12.0
1979-07-22 06:02:17.150 ,3,0,0.,12.0,0.,12.0,0.,12.0,0.,12.0
1979-07-22 06:02:29.150 ,2,0,0.,12.0,0.,12.0,0.,12.0,0.,12.0
1979-07-22 06:02:41.150 ,2,0,0.,12.0,0.,12.0,0.,12.0,0.,12.0
1979-07-22 06:02:53.150 ,2,0,0.,12.0,0.,12.0,0.,12.0,0.,12.0
1979-07-22 06:03:05.150 ,2,0,0.,12.0,0.,12.0,0.,12.0,0.,12.0
1979-07-22 06:03:17.150 ,1,0,0.,12.0,0.,12.0,0.,12.0,0.,12.0
1979-07-22 06:03:29.150 ,1,0,0.,12.0,0.,12.0,0.,12.0,0.,12.0
1979-07-22 06:03:41.150 ,1,0,0.,12.0,0.,12.0,0.,12.0,0.,12.0
1979-07-22 06:03:53.150 ,1,0,0.,12.0,0.,12.0,0.,12.0,0.,12.0
1979-07-22 06:04:05.150 ,0,0,0.,12.0,0.,12.0,0.,12.0,0.,12.0
1979-07-22 06:04:17.150 ,0,0,0.,12.0,0.,12.0,0.,12.0,0.,12.0
1979-07-22 06:04:29.150 ,0,0,0.,12.0,0.,12.0,0.,12.0,0.,12.0
1979-07-22 06:04:41.150 ,0,0,0.,12.0,0.,12.0,0.,12.0,0.,12.0
1979-07-22 06:04:53.150 ,0,0,0.,12.0,0.,12.0,0.,12.0,0.,12.0
1979-07-22 06:05:05.150 ,0,0,0.,12.0,0.,12.0,0.,12.0,0.,12.0
1979-07-22 06:05:17.150 ,0,0,0.,12.0,0.,12.0,0.,12.0,0.,12.0
1979-07-22 06:05:29.150 ,0,0,0.,12.0,0.,12.0,0.,12.0,0.,12.0
1979-07-22 06:05:41.150 ,1,0,0.,12.0,0.,12.0,0.,12.0,0.,12.0
1979-07-22 06:05:53.150 ,1,0,0.,12.0,0.,12.0,0.,12.0,0.,12.0
1979-07-22 06:06:05.150 ,1,0,0.,12.0,0.,12.0,0.,12.0,0.,12.0
1979-07-22 06:06:17.150 ,1,0,0.,12.0,0.,12.0,0.,12.0,0.,12.0
1979-07-22 06:06:29.150 ,2,0,0.,12.0,0.,12.0,0.,12.0,0.,12.0
1979-07-22 06:06:41.150 ,2,0,0.,12.0,0.,12.0,0.,12.0,0.,12.0
1979-07-22 06:06:53.150 ,2,0,0.,12.0,0.,12.0,0.,12.0,0.,12.0
1979-07-22 06:07:05.150 ,2,0,0.,12.0,0.,12.0,0.,12.0,0.,12.0
1979-07-22 06:07:17.150 ,3,0,0.,12.0,0.,12.0,0.,12.0,0.,12.0
1979-07-22 06:07:29.150 ,3,0,0.,12.0,0.,12.0,0.,12.0,0.,12.0
1979-07-22 06:07:41.150 ,3,0,0.,12.0,0.,12.0,0.,12.0,0.,12.0
1979-07-22 06:07:53.150 ,3,0,0.,12.0,0.,12.0,0.,12.0,0.,12.0
1979-07-22 06:08:05.150 ,4,0,0.,12.0,0.,12.0,0.,12.0,0.,12.0
1979-07-22 06:08:17.150 ,4,0,0.,12.0,0.,12.0,0.,12.0,0.,12.0
1979-07-22 06:08:29.150 ,4,0,0.,12.0,0.,12.0,0.,12.0,0.,12.0
1979-07-22 06:08:41.150 ,4,0,0.,12.0,0.,12.0,0.,12.0,0.,12.0
1979-07-22 06:08:53.150 ,5,0,0.,12.0,0.,12.0,0.,12.0,0.,12.0
1979-07-22 06:09:05.150 ,5,0,0.,12.0,0.,12.0,0.,12.0,0.,12.0
1979-07-22 06:09:17.150 ,5,0,0.,12.0,0.,12.0,0.,12.0,0.,12.0
1979-07-22 06:09:29.150 ,5,0,0.,12.0,0.,12.0,0.,12.0,0.,12.0
1979-07-22 06:09:41.150 ,6,0,0.,12.0,0.,12.0,0.,12.0,0.,12.0
1979-07-22 06:09:53.150 ,6,0,0.,12.0,0.,12.0,0.,12.0,0.,12.0
1979-07-22 06:10:05.150 ,6,0,0.,12.0,0.,12.0,0.,12.0,0.,12.0
1979-07-22 06:10:17.150 ,6,0,0.,12.0,0.,12.0,0.,12.0,0.,12.0
1979-07-22 06:10:29.150 ,7,0,0.,12.0,0.,12.0,0.,12.0,0.,12.0
1979-07-22 06:10:41.150 ,7,0,0.,12.0,0.,12.0,0.,12.0,0.,12.0
1979-07-22 06:10:53.150 ,7,0,0.,12.0,0.,12.0,0.,12.0,0.,12.0
1979-07-22 06:11:05.150 ,7,0,0.,12.0,0.,12.0,0.,12.0,0.,12.0
1979-07-22 06:11:17.150 ,7,0,0.,12.0,0.,12.0,0.,12.0,0.,12.0
1979-07-22 06:11:29.150 ,7,0,0.,12.0,0.,12.0,0.,12.0,0.,12.0
1979-07-22 06:11:41.150 ,7,0,0.,12.0,0.,12.0,0.,12.0,0.,12.0
1979-07-22 06:11:53.150 ,7,0,0.,12.0,0.,12.0,0.,12.0,0.,12.0
1979-07-22 06:12:05.150 ,6,0,0.,12.0,0.,12.0,0.,12.0,0.,12.0
1979-07-22 06:12:17.150 ,6,0,0.,12.0,0.,12.0,0.,12.0,0.,12.0
1979-07-22 06:12:29.150 ,6,0,0.,12.0,0.,12.0,0.,12.0,0.,12.0
1979-07-22 06:12:41.150 ,6,0,0.,12.0,0.,12.0,0.,12.0,0.,12.0
1979-07-22 06:13:41.150 ,0,0,0.,12.0,0.,12.0,0.,12.0,0.,12.0
1979-07-22 06:13:53.150 ,0,0,0.,12.0,0.,12.0,0.,12.0,0.,12.0
1979-07-22 06:14:05.150 ,0,0,0.,12.0,0.,12.0,0.,12.0,0.,12.0
1979-07-22 06:14:17.150 ,0,0,0.,12.0,0.,12.0,0.,12.0,0.,12.0
1979-07-22 06:14:29.150 ,3,0,0.,12.0,0.,12.0,0.,12.0,0.,12.0
1979-07-22 06:14:41.150 ,3,0,0.,12.0,0.,12.0,0.,12.0,0.,12.0
1979-07-22 06:14:53.150 ,3,0,0.,12.0,0.,12.0,0.,12.0,0.,12.0
1979-07-22 06:15:05.150 ,3,0,0.,12.0,0.,12.0,0.,12.0,0.,12.0
1979-07-22 06:15:17.150 ,2,0,0.,12.0,0.,12.0,0.,12.0,0.,12.0
1979-07-22 06:15:29.150 ,2,0,0.,12.0,0.,12.0,0.,12.0,0.,12.0
1979-07-22 06:15:41.150 ,2,0,0.,12.0,0.,12.0,0.,12.0,0.,12.0
1979-07-22 06:15:53.150 ,2,0,0.,12.0,0.,12.0,0.,12.0,0.,12.0
1979-07-22 06:16:05.150 ,1,0,0.,12.0,0.,12.0,0.,12.0,0.,12.0
1979-07-22 06:16:17.150 ,1,0,0.,12.0,0.,12.0,0.,12.0,0.,12.0
1979-07-22 06:16:29.150 ,1,0,0.,12.0,0.,12.0,0.,12.0,0.,12.0
1979-07-22 06:16:41.150 ,1,0,0.,12.0,0.,12.0,0.,12.0,0.,12.0
1979-07-22 06:16:53.150 ,0,0,0.,12.0,0.,12.0,0.,12.0,0.,12.0
1979-07-22 06:17:05.150 ,0,0,0.,12.0,0.,12.0,0.,12.0,0.,12.0
1979-07-22 06:17:17.150 ,0,0,0.,12.0,0.,12.0,0.,12.0,0.,12.0
1979-07-22 06:17:29.150 ,0,0,0.,12.0,0.,12.0,0.,12.0,0.,12.0
1979-07-22 06:17:41.150 ,0,0,0.,12.0,0.,12.0,0.,12.0,0.,12.0
1979-07-22 06:17:53.150 ,0,0,0.,12.0,0.,12.0,0.,12.0,0.,12.0
1979-07-22 06:18:05.150 ,0,0,0.,12.0,0.,12.0,0.,12.0,0.,12.0
1979-07-22 06:18:17.150 ,0,0,0.,12.0,0.,12.0,0.,12.0,0.,12.0
1979-07-22 06:18:29.150 ,1,0,0.,12.0,0.,12.0,0.,12.0,0.,12.0
1979-07-22 06:18:41.150 ,1,0,0.,12.0,0.,12.0,0.,12.0,0.,12.0
1979-07-22 06:18:53.150 ,1,0,0.,12.0,0.,12.0,0.,12.0,0.,12.0
1979-07-22 06:19:05.150 ,1,0,0.,12.0,0.,12.0,0.,12.0,0.,12.0
1979-07-22 06:19:17.150 ,2,0,0.,12.0,0.,12.0,0.,12.0,0.,12.0
1979-07-22 06:19:29.150 ,2,0,0.,12.0,0.,12.0,0.,12.0,0.,12.0
1979-07-22 06:19:41.150 ,2,0,0.,12.0,0.,12.0,0.,12.0,0.,12.0
1979-07-22 06:19:53.150 ,2,0,0.,12.0,0.,12.0,0.,12.0,0.,12.0
1979-07-22 06:20:05.150 ,3,0,0.,12.0,0.,12.0,0.,12.0,0.,12.0
1979-07-22 06:20:17.150 ,3,0,0.,12.0,0.,12.0,0.,12.0,0.,12.0
1979-07-22 06:20:29.150 ,3,0,0.,12.0,0.,12.0,0.,12.0,0.,12.0
1979-07-22 06:20:41.150 ,3,0,0.,12.0,0.,12.0,0.,12.0,0.,12.0
1979-07-22 06:20:53.150 ,4,0,0.,12.0,0.,12.0,0.,12.0,0.,12.0
1979-07-22 06:21:05.150 ,4,0,0.,12.0,0.,12.0,0.,12.0,0.,12.0
1979-07-22 06:21:17.150 ,4,0,0.,12.0,0.,12.0,0.,12.0,0.,12.0
1979-07-22 06:21:29.150 ,4,0,0.,12.0,0.,12.0,0.,12.0,0.,12.0
1979-07-22 06:21:41.150 ,5,0,0.,12.0,0.,12.0,0.,12.0,0.,12.0
1979-07-22 06:21:53.150 ,5,0,0.,12.0,0.,12.0,0.,12.0,0.,12.0
1979-07-22 06:22:05.150 ,5,0,0.,12.0,0.,12.0,0.,12.0,0.,12.0
1979-07-22 06:22:17.150 ,5,0,0.,12.0,0.,12.0,0.,12.0,0.,12.0
1979-07-22 06:22:29.150 ,6,0,0.,12.0,0.,12.0,0.,12.0,0.,12.0
1979-07-22 06:22:41.150 ,6,0,0.,12.0,0.,12.0,0.,12.0,0.,12.0
1979-07-22 06:22:53.150 ,6,0,0.,12.0,0.,12.0,0.,12.0,0.,12.0
1979-07-22 06:23:05.150 ,6,0,0.,12.0,0.,12.0,0.,12.0,0.,12.0
1979-07-22 06:23:17.150 ,7,0,0.,12.0,0.,12.0,0.,12.0,0.,12.0
1979-07-22 06:23:29.150 ,7,0,0.,12.0,0.,12.0,0.,12.0,0.,12.0
1979-07-22 06:23:41.150 ,7,0,0.,12.0,0.,12.0,0.,12.0,0.,12.0
1979-07-22 06:23:53.150 ,7,0,0.,12.0,0.,12.0,0.,12.0,0.,12.0
1979-07-22 06:24:05.150 ,7,0,0.,12.0,0.,12.0,0.,12.0,0.,12.0
1979-07-22 06:24:17.150 ,7,0,0.,12.0,0.,12.0,0.,12.0,0.,12.0
1979-07-22 06:24:29.150 ,7,0,0.,12.0,0.,12.0,0.,12.0,0.,12.0
1979-07-22 06:24:41.150 ,7,0,0.,12.0,0.,12.0,0.,12.0,0.,12.0
1979-07-22 06:24:53.150 ,6,0,0.,12.0,0.,12.0,0.,12.0,0.,12.0
1979-07-22 06:25:05.150 ,6,0,0.,12.0,0.,12.0,0.,12.0,0.,12.0
1979-07-22 06:25:17.150 ,6,0,0.,12.0,0.,12.0,0.,12.0,0.,12.0
1979-07-22 06:25:29.150 ,6,0,0.,12.0,0.,12.0,0.,12.0,0.,12.0
1979-07-22 06:25:41.150 ,5,0,0.,12.0,0.,12.0,0.,12.0,0.,12.0
1979-07-22 06:25:53.150 ,5,0,0.,12.0,0.,12.0,0.,12.0,0.,12.0
1979-07-22 06:26:05.150 ,5,0,0.,12.0,0.,12.0,0.,12.0,0.,12.0
1979-07-22 06:26:17.150 ,5,0,0.,12.0,0.,12.0,0.,12.0,0.,12.0
1979-07-22 06:26:29.150 ,4,0,0.,12.0,0.,12.0,0.,12.0,0.,12.0
1979-07-22 06:26:41.150 ,4,0,0.,12.0,0.,12.0,0.,12.0,0.,12.0
1979-07-22 06:26:53.150 ,4,0,0.,12.0,0.,12.0,0.,12.0,0.,12.0
1979-07-22 06:27:05.150 ,4,0,0.,12.0,0.,12.0,0.,12.0,0.,12.0
1979-07-22 06:27:17.150 ,3,0,0.,12.0,0.,12.0,0.,12.0,0.,12.0
1979-07-22 06:27:29.150 ,3,0,0.,12.0,0.,12.0,0.,12.0,0.,12.0
1979-07-22 06:27:41.150 ,3,0,0.,12.0,0.,12.0,0.,12.0,0.,12.0
1979-07-22 06:27:53.150 ,3,0,0.,12.0,0.,12.0,0.,12.0,0.,12.0
1979-07-22 06:28:05.150 ,2,0,0.,12.0,0.,12.0,0.,12.0,0.,12.0
1979-07-22 06:28:17.150 ,2,0,0.,12.0,0.,12.0,0.,12.0,0.,12.0
1979-07-22 06:28:29.150 ,2,0,0.,12.0,0.,12.0,0.,12.0,0.,12.0
1979-07-22 06:28:41.150 ,2,0,0.,12.0,0.,12.0,0.,12.0,0.,12.0
1979-07-22 06:28:53.150 ,1,0,0.,12.0,0.,12.0,0.,12.0,0.,12.0
1979-07-22 06:29:05.150 ,1,0,0.,12.0,0.,12.0,0.,12.0,0.,12.0
1979-07-22 06:29:17.150 ,1,0,0.,12.0,0.,12.0,0.,12.0,0.,12.0
1979-07-22 06:29:29.150 ,1,0,0.,12.0,0.,12.0,0.,12.0,0.,12.0
1979-07-22 06:29:41.150 ,0,0,0.,12.0,0.,12.0,0.,12.0,0.,12.0
1979-07-22 06:29:53.150 ,0,0,0.,12.0,0.,12.0,0.,12.0,0.,12.0
1979-07-22 06:30:05.150 ,0,0,0.,12.0,0.,12.0,0.,12.0,0.,12.0
1979-07-22 06:30:17.150 ,0,0,0.,12.0,0.,12.0,0.,12.0,0.,12.0
1979-07-22 06:30:29.150 ,0,0,0.,12.0,0.,12.0,0.,12.0,0.,12.0
1979-07-22 06:30:41.150 ,0,0,0.,12.0,0.,12.0,0.,12.0,0.,12.0
1979-07-22 06:30:53.150 ,0,0,0.,12.0,0.,12.0,0.,12.0,0.,12.0
1979-07-22 06:31:05.150 ,0,0,0.,12.0,0.,12.0,0.,12.0,0.,12.0
1979-07-22 06:31:17.150 ,1,0,0.,12.0,0.,12.0,0.,12.0,0.,12.0
1979-07-22 06:31:29.150 ,1,0,0.,12.0,0.,12.0,0.,12.0,0.,12.0
1979-07-22 06:31:41.150 ,1,0,0.,12.0,0.,12.0,0.,12.0,0.,12.0
1979-07-22 06:31:53.150 ,1,0,0.,12.0,0.,12.0,0.,12.0,0.,12.0
1979-07-22 06:32:05.150 ,2,0,0.,12.0,0.,12.0,0.,12.0,0.,12.0
1979-07-22 06:32:17.150 ,2,0,0.,12.0,0.,12.0,0.,12.0,0.,12.0
1979-07-22 06:32:29.150 ,2,0,0.,12.0,0.,12.0,0.,12.0,0.,12.0
1979-07-22 06:32:41.150 ,2,0,0.,12.0,0.,12.0,0.,12.0,0.,12.0
1979-07-22 06:32:53.150 ,3,0,0.,12.0,0.,12.0,0.,12.0,0.,12.0
1979-07-22 06:33:05.150 ,3,0,0.,12.0,0.,12.0,0.,12.0,0.,12.0
1979-07-22 06:33:17.150 ,3,0,0.,12.0,0.,12.0,0.,12.0,0.,12.0
1979-07-22 06:33:29.150 ,3,0,0.,12.0,0.,12.0,0.,12.0,0.,12.0
1979-07-22 06:33:41.150 ,4,0,0.,12.0,0.,12.0,0.,12.0,0.,12.0
1979-07-22 06:33:53.150 ,4,0,0.,12.0,0.,12.0,0.,12.0,0.,12.0
1979-07-22 06:34:05.150 ,4,0,0.,12.0,0.,12.0,0.,12.0,0.,12.0
1979-07-22 06:34:17.150 ,4,0,0.,12.0,0.,12.0,0.,12.0,0.,12.0
1979-07-22 06:34:29.150 ,5,0,0.,12.0,0.,12.0,0.,12.0,0.,12.0
1979-07-22 06:34:41.150 ,5,0,0.,12.0,0.,12.0,0.,12.0,0.,12.0
1979-07-22 06:34:53.150 ,5,0,0.,12.0,0.,12.0,0.,12.0,0.,12.0
1979-07-22 06:35:05.150 ,5,0,0.,12.0,0.,12.0,0.,12.0,0.,12.0
1979-07-22 06:35:17.150 ,6,0,0.,12.0,0.,12.0,0.,12.0,0.,12.0
1979-07-22 06:35:29.150 ,6,0,0.,12.0,0.,12.0,0.,12.0,0.,12.0
1979-07-22 06:35:41.150 ,6,0,0.,12.0,0.,12.0,0.,12.0,0.,12.0
1979-07-22 06:35:53.150 ,6,0,0.,12.0,0.,12.0,0.,12.0,0.,12.0
1979-07-22 06:36:05.150 ,7,0,0.,12.0,0.,12.0,0.,12.0,0.,12.0
1979-07-22 06:36:17.150 ,7,0,0.,12.0,0.,12.0,0.,12.0,0.,12.0
1979-07-22 06:36:29.150 ,7,0,0.,12.0,0.,12.0,0.,12.0,0.,12.0
1979-07-22 06:36:41.150 ,7,0,0.,12.0,0.,12.0,0.,12.0,0.,12.0
1979-07-22 06:36:53.150 ,7,0,0.,12.0,0.,12.0,0.,12.0,0.,12.0
1979-07-22 06:37:05.150 ,7,0,0.,12.0,0.,12.0,0.,12.0,0.,12.0
1979-07-22 06:37:17.150 ,7,0,0.,12.0,0.,12.0,0.,12.0,0.,12.0
1979-07-22 06:37:29.150 ,7,0,0.,12.0,0.,12.0,0.,12.0,0.,12.0
1979-07-22 06:37:41.140 ,6,0,0.,12.0,0.,12.0,0.,12.0,0.,12.0
1979-07-22 06:37:53.140 ,6,0,0.,12.0,0.,12.0,0.,12.0,0.,12.0
1979-07-22 06:38:05.140 ,6,0,0.,12.0,0.,12.0,0.,12.0,0.,12.0
1979-07-22 06:38:17.140 ,6,0,0.,12.0,0.,12.0,0.,12.0,0.,12.0
1979-07-22 06:38:29.140 ,5,0,0.,12.0,0.,12.0,0.,12.0,0.,12.0
1979-07-22 06:38:41.140 ,5,0,0.,12.0,0.,12.0,0.,12.0,0.,12.0
1979-07-22 06:38:53.140 ,5,0,0.,12.0,0.,12.0,0.,12.0,0.,12.0
1979-07-22 06:39:05.140 ,5,0,0.,12.0,0.,12.0,0.,12.0,0.,12.0
1979-07-22 06:39:17.140 ,4,0,0.,12.0,0.,12.0,0.,12.0,0.,12.0
1979-07-22 06:39:29.140 ,4,0,0.,12.0,0.,12.0,0.,12.0,0.,12.0
1979-07-22 06:39:41.140 ,4,0,0.,12.0,0.,12.0,0.,12.0,0.,12.0
1979-07-22 06:39:53.140 ,4,0,0.,12.0,0.,12.0,0.,12.0,0.,12.0
1979-07-22 06:40:05.140 ,3,0,,0,,0,,0,,0
1979-07-22 06:40:17.140 ,3,0,0.,12.0,0.,12.0,0.,12.0,0.,12.0
1979-07-22 06:40:29.140 ,3,0,0.,12.0,0.,12.0,0.,12.0,0.,12.0
1979-07-22 06:40:41.140 ,3,0,0.,12.0,0.,12.0,0.,12.0,0.,12.0
1979-07-22 06:40:53.140 ,2,0,0.,12.0,0.,12.0,0.,12.0,0.,12.0
1979-07-22 06:41:05.140 ,2,0,0.,12.0,0.,12.0,0.,12.0,0.,12.0
1979-07-22 06:41:17.140 ,2,0,0.,12.0,0.,12.0,0.,12.0,0.,12.0
1979-07-22 06:41:29.140 ,2,0,0.,12.0,0.,12.0,0.,12.0,0.,12.0
1979-07-22 06:41:41.140 ,1,0,0.,12.0,0.,12.0,0.,12.0,0.,12.0
1979-07-22 06:41:53.140 ,1,0,0.,12.0,0.,12.0,0.,12.0,0.,12.0
1979-07-22 06:42:05.140 ,1,0,0.,12.0,0.,12.0,0.,12.0,0.,12.0
1979-07-22 06:42:17.140 ,1,0,0.,12.0,0.,12.0,0.,12.0,0.,12.0
1979-07-22 06:42:29.140 ,0,0,0.,12.0,0.,12.0,0.,12.0,0.,12.0
1979-07-22 06:42:41.140 ,0,0,0.,12.0,0.,12.0,0.,12.0,0.,12.0
1979-07-22 06:42:53.140 ,0,0,0.,12.0,0.,12.0,0.,12.0,0.,12.0
1979-07-22 06:43:05.140 ,0,0,0.,12.0,0.,12.0,0.,12.0,0.,12.0
1979-07-22 06:43:17.140 ,0,0,0.,12.0,0.,12.0,0.,12.0,0.,12.0
1979-07-22 06:43:29.140 ,0,0,0.,12.0,0.,12.0,0.,12.0,0.,12.0
1979-07-22 06:43:41.140 ,0,0,0.,12.0,0.,12.0,0.,12.0,0.,12.0
1979-07-22 06:43:53.140 ,0,0,0.,12.0,0.,12.0,0.,12.0,0.,12.0
1979-07-22 06:44:05.140 ,1,0,0.,12.0,0.,12.0,0.,12.0,0.,12.0
1979-07-22 06:44:17.140 ,1,0,0.,12.0,0.,12.0,0.,12.0,0.,12.0
1979-07-22 06:44:29.140 ,1,0,0.,12.0,0.,12.0,0.,12.0,0.,12.0
1979-07-22 06:44:41.140 ,1,0,0.,12.0,0.,12.0,0.,12.0,0.,12.0
1979-07-22 06:44:53.140 ,2,0,0.,12.0,0.,12.0,0.,12.0,0.,12.0
1979-07-22 06:45:05.140 ,2,0,0.,12.0,0.,12.0,0.,12.0,0.,12.0
1979-07-22 06:45:17.140 ,2,0,0.,12.0,0.,12.0,0.,12.0,0.,12.0
1979-07-22 06:45:29.140 ,2,0,0.,12.0,0.,12.0,0.,12.0,0.,12.0
1979-07-22 06:45:41.140 ,3,0,0.,12.0,0.,12.0,0.,12.0,0.,12.0
1979-07-22 06:45:53.140 ,3,0,0.,12.0,0.,12.0,0.,12.0,0.,12.0
1979-07-22 06:46:05.140 ,3,0,0.,12.0,0.,12.0,0.,12.0,0.,12.0
1979-07-22 06:46:17.140 ,3,0,0.,12.0,0.,12.0,0.,12.0,0.,12.0
1979-07-22 06:46:29.140 ,4,0,0.,12.0,0.,12.0,0.,12.0,0.,12.0
1979-07-22 06:46:41.140 ,4,0,0.,12.0,0.,12.0,0.,12.0,0.,12.0
1979-07-22 06:46:53.140 ,4,0,0.,12.0,0.,12.0,0.,12.0,0.,12.0
1979-07-22 06:47:05.140 ,4,0,0.,12.0,0.,12.0,0.,12.0,0.,12.0
1979-07-22 06:47:17.140 ,5,0,0.,12.0,0.,12.0,0.,12.0,0.,12.0
1979-07-22 06:47:29.140 ,5,0,0.,12.0,0.,12.0,0.,12.0,0.,12.0
1979-07-22 06:47:41.140 ,5,1,,0,,0,,0,,0
1979-07-22 06:47:53.140 ,5,1,,0,,0,,0,,0
1979-07-22 06:47:52.540 ,0,0,,0,,0,,0,,0
1979-07-22 06:48:04.540 ,0,0,0.,12.0,0.,12.0,0.,12.0,0.,12.0
1979-07-22 06:48:05.140 ,6,0,0.,12.0,0.,12.0,0.,12.0,0.,12.0
1979-07-22 06:48:17.140 ,6,0,1.,12.0,0.,12.0,0.,12.0,0.,12.0
1979-07-22 06:48:29.140 ,6,0,0.,12.0,0.,12.0,0.,12.0,0.,12.0
1979-07-22 06:48:41.140 ,6,0,0.,12.0,0.,12.0,0.,12.0,0.,12.0
1979-07-22 06:48:53.140 ,7,0,0.,12.0,0.,12.0,0.,12.0,0.,12.0
1979-07-22 06:49:05.140 ,7,0,0.,12.0,0.,12.0,0.,12.0,0.,12.0
1979-07-22 06:49:17.140 ,7,0,0.,12.0,0.,12.0,0.,12.0,0.,12.0
1979-07-22 06:49:29.140 ,7,0,0.,12.0,0.,12.0,0.,12.0,0.,12.0
1979-07-22 06:49:41.140 ,7,0,0.,12.0,0.,12.0,0.,12.0,0.,12.0
1979-07-22 06:49:53.140 ,7,0,0.,12.0,0.,12.0,0.,12.0,0.,12.0
1979-07-22 06:50:05.140 ,7,0,0.,12.0,0.,12.0,0.,12.0,0.,12.0
1979-07-22 06:50:17.140 ,7,0,0.,12.0,0.,12.0,0.,12.0,0.,12.0
1979-07-22 06:50:29.140 ,6,0,0.,12.0,0.,12.0,0.,12.0,0.,12.0
1979-07-22 06:50:41.140 ,6,0,0.,12.0,0.,12.0,0.,12.0,0.,12.0
1979-07-22 06:50:53.140 ,6,0,0.,12.0,0.,12.0,0.,12.0,0.,12.0
1979-07-22 06:51:05.140 ,6,0,0.,12.0,0.,12.0,0.,12.0,0.,12.0
1979-07-22 06:51:17.140 ,5,0,0.,12.0,0.,12.0,0.,12.0,0.,12.0
1979-07-22 06:51:29.140 ,5,0,0.,12.0,0.,12.0,0.,12.0,0.,12.0
1979-07-22 06:51:41.140 ,5,0,0.,12.0,0.,12.0,0.,12.0,0.,12.0
1979-07-22 06:51:53.140 ,5,0,0.,12.0,0.,12.0,0.,12.0,0.,12.0
1979-07-22 06:52:05.140 ,4,0,0.,12.0,0.,12.0,0.,12.0,0.,12.0
1979-07-22 06:52:17.140 ,4,0,0.,12.0,0.,12.0,0.,12.0,0.,12.0
1979-07-22 06:52:29.140 ,4,0,0.,12.0,0.,12.0,0.,12.0,0.,12.0
1979-07-22 06:52:41.140 ,4,0,0.,12.0,0.,12.0,0.,12.0,0.,12.0
1979-07-22 06:52:53.140 ,3,0,0.,12.0,0.,12.0,0.,12.0,0.,12.0
1979-07-22 06:53:05.140 ,3,0,0.,12.0,0.,12.0,0.,12.0,0.,12.0
1979-07-22 06:53:17.140 ,3,0,0.,12.0,0.,12.0,0.,12.0,0.,12.0
1979-07-22 06:53:29.140 ,3,0,0.,12.0,0.,12.0,0.,12.0,0.,12.0
1979-07-22 06:53:41.140 ,2,0,0.,12.0,0.,12.0,0.,12.0,0.,12.0
1979-07-22 06:53:53.140 ,2,0,0.,12.0,0.,12.0,0.,12.0,0.,12.0
1979-07-22 06:54:05.140 ,2,0,0.,12.0,0.,12.0,0.,12.0,0.,12.0
1979-07-22 06:54:17.140 ,2,0,0.,12.0,0.,12.0,0.,12.0,0.,12.0
1979-07-22 06:54:29.140 ,1,0,0.,12.0,0.,12.0,0.,12.0,0.,12.0
1979-07-22 06:54:41.140 ,1,0,0.,12.0,0.,12.0,0.,12.0,0.,12.0
1979-07-22 06:54:53.140 ,1,0,0.,12.0,0.,12.0,0.,12.0,0.,12.0
1979-07-22 06:55:05.140 ,1,0,0.,12.0,0.,12.0,0.,12.0,0.,12.0
1979-07-22 06:55:17.140 ,0,0,0.,12.0,0.,12.0,0.,12.0,0.,12.0
1979-07-22 06:55:29.140 ,0,0,0.,12.0,0.,12.0,0.,12.0,0.,12.0
1979-07-22 06:55:41.140 ,0,0,0.,12.0,0.,12.0,0.,12.0,0.,12.0
1979-07-22 06:55:53.140 ,0,0,0.,12.0,0.,12.0,0.,12.0,0.,12.0
1979-07-22 06:56:05.140 ,0,0,0.,12.0,0.,12.0,0.,12.0,0.,12.0
1979-07-22 06:56:17.140 ,0,0,0.,12.0,0.,12.0,0.,12.0,0.,12.0
1979-07-22 06:56:29.140 ,0,0,0.,12.0,0.,12.0,0.,12.0,0.,12.0
1979-07-22 06:56:41.140 ,0,0,0.,12.0,0.,12.0,0.,12.0,0.,12.0
1979-07-22 06:56:53.140 ,1,0,0.,12.0,0.,12.0,0.,12.0,0.,12.0
1979-07-22 06:57:05.140 ,1,0,0.,12.0,0.,12.0,0.,12.0,0.,12.0
1979-07-22 06:57:17.140 ,1,0,0.,12.0,0.,12.0,0.,12.0,0.,12.0
1979-07-22 06:57:29.140 ,1,0,0.,12.0,0.,12.0,0.,12.0,0.,12.0
1979-07-22 06:57:41.140 ,2,0,0.,12.0,0.,12.0,0.,12.0,0.,12.0
1979-07-22 06:57:53.140 ,2,0,0.,12.0,0.,12.0,0.,12.0,0.,12.0
1979-07-22 06:58:05.140 ,2,0,1.,12.0,0.,12.0,0.,12.0,0.,12.0
1979-07-22 06:58:17.140 ,2,0,0.,12.0,0.,12.0,0.,12.0,0.,12.0
1979-07-22 06:58:29.140 ,3,0,0.,12.0,0.,12.0,0.,12.0,0.,12.0
1979-07-22 06:58:41.140 ,3,0,0.,12.0,0.,12.0,0.,12.0,0.,12.0
1979-07-22 06:58:53.140 ,3,0,0.,12.0,1.,12.0,0.,12.0,0.,12.0
1979-07-22 06:59:05.140 ,3,0,0.,12.0,0.,12.0,0.,12.0,0.,12.0
1979-07-22 06:59:17.140 ,4,0,0.,12.0,0.,12.0,0.,12.0,0.,12.0
1979-07-22 06:59:29.140 ,4,0,0.,12.0,0.,12.0,0.,12.0,0.,12.0
1979-07-22 06:59:41.140 ,4,0,0.,12.0,0.,12.0,0.,12.0,0.,12.0
1979-07-22 06:59:53.140 ,4,0,0.,12.0,0.,12.0,0.,12.0,0.,12.0
1979-07-22 07:00:05.140 ,5,0,0.,12.0,0.,12.0,0.,12.0,0.,12.0
1979-07-22 07:00:17.140 ,5,0,0.,12.0,0.,12.0,0.,12.0,0.,12.0
1979-07-22 07:00:29.140 ,5,0,0.,12.0,0.,12.0,0.,12.0,0.,12.0
1979-07-22 07:00:41.140 ,5,0,0.,12.0,0.,12.0,0.,12.0,0.,12.0
1979-07-22 07:00:53.140 ,6,0,0.,12.0,0.,12.0,0.,12.0,0.,12.0
1979-07-22 07:01:05.140 ,6,0,0.,12.0,0.,12.0,0.,12.0,0.,12.0
1979-07-22 07:01:17.140 ,6,0,0.,12.0,0.,12.0,0.,12.0,0.,12.0
1979-07-22 07:01:29.140 ,6,0,0.,12.0,0.,12.0,0.,12.0,0.,12.0
1979-07-22 07:01:41.140 ,7,0,0.,12.0,0.,12.0,0.,12.0,0.,12.0
1979-07-22 07:01:53.140 ,7,0,0.,12.0,0.,12.0,0.,12.0,0.,12.0
1979-07-22 07:02:05.140 ,7,0,0.,12.0,0.,12.0,0.,12.0,0.,12.0
1979-07-22 07:02:17.140 ,7,0,0.,12.0,0.,12.0,0.,12.0,0.,12.0
1979-07-22 07:03:17.140 ,0,0,0.,12.0,0.,12.0,0.,12.0,0.,12.0
1979-07-22 07:03:29.140 ,0,0,1.,12.0,0.,12.0,0.,12.0,0.,12.0
1979-07-22 07:03:41.140 ,0,0,0.,12.0,0.,12.0,0.,12.0,0.,12.0
1979-07-22 07:03:53.140 ,0,0,1.,12.0,0.,12.0,0.,12.0,0.,12.0
1979-07-22 07:04:05.140 ,5,0,0.,12.0,0.,12.0,0.,12.0,0.,12.0
1979-07-22 07:04:17.140 ,5,0,0.,12.0,0.,12.0,0.,12.0,0.,12.0
1979-07-22 07:04:29.140 ,5,0,0.,12.0,0.,12.0,0.,12.0,0.,12.0
1979-07-22 07:04:41.140 ,5,0,0.,12.0,0.,12.0,0.,12.0,0.,12.0
1979-07-22 07:04:53.140 ,4,0,0.,12.0,0.,12.0,0.,12.0,0.,12.0
1979-07-22 07:05:05.140 ,4,0,0.,12.0,0.,12.0,0.,12.0,0.,12.0
1979-07-22 07:05:17.140 ,4,0,0.,12.0,0.,12.0,0.,12.0,0.,12.0
1979-07-22 07:05:29.140 ,4,0,0.,12.0,0.,12.0,0.,12.0,0.,12.0
1979-07-22 07:05:41.140 ,3,0,0.,12.0,0.,12.0,0.,12.0,0.,12.0
1979-07-22 07:05:53.140 ,3,0,0.,12.0,0.,12.0,0.,12.0,0.,12.0
1979-07-22 07:06:05.140 ,3,0,0.,12.0,0.,12.0,0.,12.0,0.,12.0
1979-07-22 07:06:17.140 ,3,0,0.,12.0,0.,12.0,0.,12.0,0.,12.0
1979-07-22 07:06:29.140 ,2,0,0.,12.0,0.,12.0,0.,12.0,0.,12.0
1979-07-22 07:06:41.140 ,2,0,0.,12.0,0.,12.0,0.,12.0,0.,12.0
1979-07-22 07:06:53.140 ,2,0,0.,12.0,0.,12.0,0.,12.0,0.,12.0
1979-07-22 07:07:05.140 ,2,0,0.,12.0,0.,12.0,0.,12.0,0.,12.0
1979-07-22 07:07:17.140 ,1,1,0.,12.0,0.,12.0,0.,12.0,0.,12.0
1979-07-22 07:07:29.140 ,1,1,,0,,0,,0,,0
1979-07-22 07:07:41.140 ,1,0,0.,12.0,0.,12.0,0.,12.0,0.,12.0
1979-07-22 07:07:53.140 ,1,0,0.,12.0,0.,12.0,0.,12.0,0.,12.0
1979-07-22 07:08:05.140 ,0,0,0.,12.0,0.,12.0,0.,12.0,0.,12.0
1979-07-22 07:08:17.140 ,0,0,0.,12.0,0.,12.0,0.,12.0,0.,12.0
1979-07-22 07:08:29.140 ,0,0,0.,12.0,0.,12.0,0.,12.0,0.,12.0
1979-07-22 07:08:41.140 ,0,0,0.,12.0,0.,12.0,0.,12.0,0.,12.0
1979-07-22 07:08:53.140 ,0,0,0.,12.0,0.,12.0,0.,12.0,0.,12.0
1979-07-22 07:09:05.140 ,0,0,0.,12.0,0.,12.0,0.,12.0,0.,12.0
1979-07-22 07:09:17.140 ,0,0,0.,12.0,0.,12.0,0.,12.0,0.,12.0
1979-07-22 07:09:29.140 ,0,0,0.,12.0,0.,12.0,0.,12.0,0.,12.0
1979-07-22 07:09:41.140 ,1,0,0.,12.0,0.,12.0,0.,12.0,0.,12.0
1979-07-22 07:09:53.140 ,1,0,0.,12.0,0.,12.0,0.,12.0,0.,12.0
1979-07-22 07:10:05.140 ,1,0,0.,12.0,0.,12.0,0.,12.0,0.,12.0
1979-07-22 07:10:17.140 ,1,0,0.,12.0,0.,12.0,0.,12.0,0.,12.0
1979-07-22 07:10:29.140 ,2,0,0.,12.0,0.,12.0,0.,12.0,0.,12.0
1979-07-22 07:10:41.140 ,2,0,0.,12.0,0.,12.0,0.,12.0,0.,12.0
1979-07-22 07:10:53.140 ,2,0,0.,12.0,0.,12.0,0.,12.0,0.,12.0
1979-07-22 07:11:05.140 ,2,0,0.,12.0,0.,12.0,0.,12.0,0.,12.0
1979-07-22 07:11:17.140 ,3,0,0.,12.0,0.,12.0,0.,12.0,0.,12.0
1979-07-22 07:11:29.140 ,3,0,0.,12.0,0.,12.0,0.,12.0,0.,12.0
1979-07-22 07:11:41.140 ,3,0,0.,12.0,0.,12.0,0.,12.0,0.,12.0
1979-07-22 07:11:53.140 ,3,0,0.,12.0,0.,12.0,0.,12.0,0.,12.0
1979-07-22 07:12:05.140 ,4,0,0.,12.0,0.,12.0,0.,12.0,0.,12.0
1979-07-22 07:12:17.140 ,4,0,0.,12.0,0.,12.0,0.,12.0,0.,12.0
1979-07-22 07:12:29.140 ,4,0,0.,12.0,0.,12.0,0.,12.0,0.,12.0
1979-07-22 07:12:41.140 ,4,0,0.,12.0,0.,12.0,0.,12.0,0.,12.0
1979-07-22 07:12:53.140 ,5,0,0.,12.0,0.,12.0,0.,12.0,0.,12.0
1979-07-22 07:13:05.140 ,5,0,0.,12.0,0.,12.0,0.,12.0,0.,12.0
1979-07-22 07:13:17.140 ,5,0,0.,12.0,0.,12.0,0.,12.0,0.,12.0
1979-07-22 07:13:29.140 ,5,0,0.,12.0,0.,12.0,0.,12.0,0.,12.0
1979-07-22 07:13:41.140 ,6,0,0.,12.0,0.,12.0,0.,12.0,0.,12.0
1979-07-22 07:13:53.140 ,6,0,0.,12.0,0.,12.0,0.,12.0,0.,12.0
1979-07-22 07:14:05.140 ,6,0,0.,12.0,0.,12.0,0.,12.0,0.,12.0
1979-07-22 07:14:17.140 ,6,0,0.,12.0,0.,12.0,0.,12.0,0.,12.0
1979-07-22 07:14:29.140 ,7,0,0.,12.0,0.,12.0,0.,12.0,0.,12.0
1979-07-22 07:14:41.140 ,7,0,0.,12.0,0.,12.0,0.,12.0,0.,12.0
1979-07-22 07:14:53.140 ,7,0,0.,12.0,0.,12.0,0.,12.0,0.,12.0
1979-07-22 07:15:05.140 ,7,0,0.,12.0,0.,12.0,0.,12.0,0.,12.0
1979-07-22 07:15:17.140 ,7,0,0.,12.0,0.,12.0,0.,12.0,0.,12.0
1979-07-22 07:15:29.140 ,7,0,0.,12.0,0.,12.0,0.,12.0,0.,12.0
1979-07-22 07:15:41.140 ,7,0,0.,12.0,0.,12.0,0.,12.0,0.,12.0
1979-07-22 07:15:53.140 ,7,0,0.,12.0,0.,12.0,0.,12.0,0.,12.0
1979-07-22 07:16:05.140 ,6,0,0.,12.0,0.,12.0,0.,12.0,0.,12.0
1979-07-22 07:16:17.140 ,6,0,0.,12.0,0.,12.0,0.,12.0,0.,12.0
1979-07-22 07:16:29.140 ,6,0,0.,12.0,0.,12.0,0.,12.0,0.,12.0
1979-07-22 07:16:41.140 ,6,0,0.,12.0,0.,12.0,0.,12.0,0.,12.0
1979-07-22 07:16:53.140 ,5,0,0.,12.0,0.,12.0,0.,12.0,0.,12.0
1979-07-22 07:17:05.140 ,5,0,0.,12.0,0.,12.0,0.,12.0,0.,12.0
1979-07-22 07:17:17.140 ,5,0,0.,12.0,0.,12.0,0.,12.0,0.,12.0
1979-07-22 07:17:29.140 ,5,0,0.,12.0,0.,12.0,0.,12.0,0.,12.0
1979-07-22 07:17:41.140 ,4,0,0.,12.0,0.,12.0,0.,12.0,0.,12.0
1979-07-22 07:17:53.140 ,4,0,0.,12.0,0.,12.0,0.,12.0,0.,12.0
1979-07-22 07:18:05.140 ,4,0,0.,12.0,0.,12.0,0.,12.0,0.,12.0
1979-07-22 07:18:17.140 ,4,0,0.,12.0,0.,12.0,0.,12.0,0.,12.0
1979-07-22 07:18:29.140 ,3,0,0.,12.0,0.,12.0,0.,12.0,0.,12.0
1979-07-22 07:18:41.140 ,3,0,0.,12.0,0.,12.0,0.,12.0,0.,12.0
1979-07-22 07:18:53.140 ,3,0,0.,12.0,0.,12.0,0.,12.0,0.,12.0